TIROS N 1 11060U 78096A 09006.90563227 -.00000010 00000-0 17102-4 0 850 2 11060 098.9068 336.8009 0011200 113.4950 246.7401 14.17466623776101 NOAA 6 1 11416U 79057A 09006.70255976 .00000017 00000-0 22031-4 0 7445 2 11416 098.4165 026.4930 0010912 024.6125 335.5577 14.31898591538601 NOAA 9 1 15427U 84123A 09006.53731488 -.00000019 00000-0 11210-4 0 5076 2 15427 098.4373 012.8401 0015259 161.5631 198.6074 14.15308543242092 NOAA 10 1 16969U 86073A 09006.30068954 .00000073 00000-0 48007-4 0 4465 2 16969 098.7088 033.7047 0011693 311.9816 048.0370 14.27377462160413 NOAA 11 1 19531U 88089A 09006.33760078 -.00000276 00000-0 -12042-3 0 4636 2 19531 098.7898 098.7723 0011093 206.6934 153.3655 14.14884345 46639 NOAA 12 1 21263U 91032A 09006.60711778 .00000026 00000-0 29773-4 0 9687 2 21263 098.7720 014.5949 0011505 255.5120 104.4782 14.25561615917372 NOAA 14 1 23455U 94089A 09006.24256688 -.00000002 00000-0 22727-4 0 4650 2 23455 098.9266 084.3892 0008522 290.3572 069.6681 14.13755910723048 NOAA 15 1 25338U 98030A 09006.52959381 -.00000190 00000-0 -62999-4 0 7638 2 25338 098.5731 359.3959 0010929 164.6216 195.5309 14.24739104553758 NOAA 16 1 26536U 00055A 09006.57644294 -.00000312 00000-0 -14342-3 0 2390 2 26536 099.1723 006.3732 0010723 019.1492 341.0070 14.12505310427487 NOAA 17 1 27453U 02032A 09006.53802068 .00000112 00000-0 67273-4 0 2520 2 27453 098.5097 071.0043 0011075 231.7065 128.3109 14.24031475339745 NOAA 18 1 28654U 05018A 09006.25596795 .00000283 00000-0 18107-3 0 7342 2 28654 098.8916 310.8974 0015192 099.7058 260.5843 14.11223492187111